Regional Weather Roundup
Issued by NWS

Home | Current Version | Previous Version | Graphics & Text | Print | Product List | Glossary Off
Versions: 1 2 3 4 5 6 7 8 9 10 11 12 13 14 15 16 17 18 19 20 21 22 23 24 25 26 27 28 29 30 31 32 33 34 35 36 37 38 39 40 41 42 43 44 45 46 47 48 49 50

000
ASUS43 KMKX 040821
RWRWI

WISCONSIN REGIONAL WEATHER ROUNDUP
NATIONAL WEATHER SERVICE MILWAUKEE/SULLIVAN WI
200 AM CST WED MAR 04 2015

NOTE: "FAIR" INDICATES FEW OR NO CLOUDS BELOW 12,000 FEET WITH NO
SIGNIFICANT WEATHER AND/OR OBSTRUCTIONS TO VISIBILITY.

WIZ001-002-006>008-014>016-023>028-040900-
NORTHWEST WISCONSIN

CITY           SKY/WX    TMP DP  RH WIND       PRES   REMARKS
SUPERIOR ARPT  CLEAR      1 -10  61 W10G23    30.00R WCI -15
ASHLAND        CLOUDY     3  -6  66 W14G22    29.94R WCI -15
HAYWARD        FAIR       1 -10  60 W9        29.94R WCI -14
SIREN          CLEAR      1  -6  73 W8        30.01R WCI -13
CUMBERLAND     PTCLDY     1  -6  71 W13       29.97R WCI -16
RICE LAKE      CLEAR      3  -4  72 W8        30.00R WCI -11
CHETEK         CLEAR      3  -3  74 MISG      29.99R
LADYSMITH      CLEAR      4  -5  65 W10       29.95R WCI -11
EAU CLAIRE     CLEAR      5  -5  63 W12       30.01R WCI -11
MENOMONIE      CLEAR      6  -4  62 W15       30.03R WCI -12
NEW RICHMOND   CLEAR      2  -5  71 W14       30.03R WCI -16
OSCEOLA        CLEAR      2  -5  72 W8        30.07R WCI -12
$$

WIZ003>005-009-010-017-018-040900-
NORTH CENTRAL WISCONSIN

CITY           SKY/WX    TMP DP  RH WIND       PRES   REMARKS
MANITOWISH WTR CLEAR      2  -6  69 W9        29.82R WCI -12
ARBOR VITAE    CLEAR      5  -4  66 NW8       29.82R WCI  -8
WOODRUFF       CLEAR      5  -4  66 NW8       29.82R WCI  -8
RHINELANDER    CLEAR      6  -4  63 W15G23    29.81R WCI -12
EAGLE RIVER    CLEAR      5  -5  63 W12G17    29.79R WCI -11
LAND O LAKES   CLOUDY     7   0  71 W12G17    29.79R WCI  -8
PHILLIPS       CLOUDY     3  -2  77 W3        29.87R HAZE
TOMAHAWK       CLEAR      6  -2  68 W6        29.84R WCI  -4
MEDFORD        CLEAR      6  -2  70 W13G20    29.87R WCI -10
MERRILL        MOCLDY    10   0  63 NW8       29.85R WCI  -2
$$

WIZ029-030-035-036-043>047-040900-
CENTRAL WISCONSIN

CITY           SKY/WX    TMP DP  RH WIND       PRES   REMARKS
WAUSAU         CLEAR     10   1  67 NW13      29.85R WCI  -5
MOSINEE        CLEAR     10   5  79 W14G21    29.87R WCI  -5
MARSHFIELD     CLEAR      9  -1  64 W13G22    29.90R WCI  -7
STEVENS POINT  CLEAR     10   1  69 W8        29.89R WCI  -3
WAUPACA        CLEAR     17   6  62 W8        29.88R WCI   7
WAUTOMA        CLEAR     14   5  67 W12       29.91R WCI   0
WISC RAPIDS    CLEAR     11   1  64 W7        29.92R WCI   0
CAMP DOUGLAS   CLEAR     12   4  69 W16G24    29.94R WCI  -5
$$

WIZ011>013-019>022-031-037>040-048>050-040900-
NORTHEAST WISCONSIN

CITY           SKY/WX    TMP DP  RH WIND       PRES   REMARKS
ANTIGO         CLEAR      8   0  68 W22G29    29.80R WCI -12
SHAWANO        CLEAR     18   3  51 NW8       29.85R WCI   7
OCONTO         CLEAR     17   6  60 NW3       29.83R
STURGEON BAY   CLEAR     16   5  62 NW13      29.83R WCI   2
GREEN BAY      CLEAR     19   5  54 W15       29.85R WCI   5
MANITOWOC      CLEAR     20  10  65 W12       29.85  WCI   8
APPLETON       CLEAR     18   5  57 W18       29.86R WCI   2
CLINTONVILLE   CLEAR     18   5  57 W12G17    29.86R WCI   5
OSHKOSH        CLEAR     18   7  62 W12       29.87R WCI   5
$$

WIZ032>034-041-042-053>061-040900-
SOUTHWEST WISCONSIN

CITY           SKY/WX    TMP DP  RH WIND       PRES   REMARKS
LA CROSSE      CLEAR     11   1  64 NW14      30.04R WCI  -5
SPARTA         PTCLDY    12   3  67 W10G18    30.00R WCI  -1
VIROQUA        CLEAR      9   2  74 NW13      29.95R WCI  -7
BOSCOBEL       FAIR      13   4  67 W7        30.02R WCI   3
PRAIRIE DU CHI CLEAR     11   2  66 NW15      30.04R WCI  -5
PLATTEVILLE    CLEAR     11   6  79 W9        29.97R WCI  -2
$$

WIZ056-057-062-063-064-067-068-040900-
SOUTH CENTRAL WISCONSIN

CITY           SKY/WX    TMP DP  RH WIND       PRES   REMARKS
REEDSBURG      CLEAR     13   6  73 W12       29.94R WCI   0
BARABOO/DELLS  PTCLDY    14   7  74 W9        29.93R WCI   2
LONE ROCK      CLEAR     14   5  67 W15       29.98R WCI  -1
MINERAL POINT  CLEAR     14   9  79 NW8       29.94R WCI   3
MADISON        CLEAR     18  10  71 NW10      29.92R WCI   6
MIDDLETON      CLEAR     18  10  68 NW12      29.93R WCI   6
WATERTOWN      CLEAR     21  14  73 NW10      29.89R WCI  10
MONROE         CLEAR     16  12  86 W14       29.91R WCI   1
JANESVILLE     CLEAR     21  14  73 W10       29.91R WCI  10
$$

WIZ051-052-058>065-066-070>072-040900-
SOUTHEAST WISCONSIN

CITY           SKY/WX    TMP DP  RH WIND       PRES   REMARKS
MILWAUKEE      PTCLDY    27  18  69 W9        29.86R WCI  18
WAUKESHA       MOCLDY    23  14  68 NW14      29.88R WCI  11
MILWAUKEE/TIMM MOCLDY    27  14  59 NW14      29.87R WCI  15
RACINE         MOCLDY    28  18  66 W6        29.87R WCI  22
BURLINGTON     MOCLDY    24  17  74 W9        29.87R WCI  14
KENOSHA        PTCLDY    23  20  88 W6        29.85S WCI  16
FOND DU LAC    CLEAR     19   8  62 W10       29.88R WCI   7
SHEBOYGAN      CLEAR     21   8  57 NW12G24   29.85R WCI   9
WEST BEND      CLEAR     21  12  68 W13G21    29.86R WCI   9
JUNEAU         CLEAR     19   9  66 W7        29.89R WCI   9
$$

LSZ147-162-040900-
LAKE SUPERIOR

STATION/POSITION TIME  TEMP    WIND        PRES    WAVE
                       AIR SEA DIR/SP/G            HT/PER
                 (UTC) (F)     (DEG/KT/KT) (MB)    (FT/S)
DEVILS ISLAND    0800    7     290/ 24/ 29 1014.4R
PORT WING        0708    6     280/ 20/ 26 1013.5
SAXON HARBOR     0700    8     280/  7/ 16 1012.5R
$$

LMZ867-665-643>646-040900-
LAKE MICHIGAN

STATION/POSITION TIME  TEMP    WIND        PRES    WAVE
                       AIR SEA DIR/SP/G            HT/PER
                 (UTC) (F)     (DEG/KT/KT) (MB)    (FT/S)
NORTHPORT PIER   0803   19     280/  5/ 15 1009.1R
SISTER BAY       0713   17     310/ 15/ 17   N/A
KEWAUNEE LAKESHO 0700   24     290/  7/ 11 1008.4R
SHEBOYGAN LAKESH 0800   23     290/ 12/ 16 1012.2R
PORT WASHINGTON  0700   27     280/  5/  9 1011.5R
MILWAUKEE LAKESH 0800   28     310/ 11/ 17   N/A
KENOSHA   LAKESH 0800   29     270/  5/  8 1011.5R
$$

TC  - TEMPERATURE IN CELSIUS
VSB - VISIBILITY IN STATUTE MILES
WCI - WIND CHILL INDEX
HX  - HEAT INDEX



USA.gov is the U.S. government's official web portal to all federal, state and local government web resources and services.